Multibeam Report for MV1202


Ship Name: Melville
Chief Scientist: Wood, Warren T.
Naval Research Laboratory
Source Organization: Rolling Deck to Repository
Start Date: 2012-01-23
End Date: 2012-02-08


View ISO Metadata

Visit the full NCEI Bathymetry Viewer


Multibeam Bathymetry

Cruise Details

Project: Seismic Oceanography of Agulhas Mixing
Instrument: Kongsberg EM122

Data Quality

Number of Files: 342
Number of Records: 115147
BATHYMETRY DATA Quantity Percentage
Number of Beams 25015824 100%
Number of Good Beams 21912551 87.59%
Number of Zero Beams 0 0%
Number of Flagged Beams 3103273 12.41%
AMPLITUDE DATA Quantity Percentage
Number of Beams 25015824 100%
Number of Good Beams 21912551 87.59%
Number of Zero Beams 0 0%
Number of Flagged Beams 3103273 12.41%
SIDESCAN DATA Quantity Percentage
Number of Pixels 117910528 100%
Number of Good Pixels 75848451 64.33%
Number of Zero Pixels 0 0%
Number of Flagged Pixels 42062077 35.67%

Navigation Totals

Total Time: 149.4136 hours
Total Track Length: 1666.5218 km
Average Speed: 11.154 km/hr (6.0227 knots)

Cruise Bounds

Northern Extent: -35.475105
Southern Extent: -40.035324
Western Extent: 19.438503
Eastern Extent: 25.33492

Limits

Minimum Sonar Depth 1.1553 Maximum Sonar Depth 8.9218
Minimum Altitude 145.3315 Maximum Altitude 6397.1572
Minimum Depth 149.9686 Maximum Depth 7230.1831
Minimum Amplitude 0 Maximum Amplitude 361.9
Minimum Sidescan 0 Maximum Sidescan 325.25

File Information

Full Resolution Bathymetry as collected (raw): 339

Files File Size Description
0000_20120125_075632_melville.all.mb58.gz 148.9KB Kongsberg multibeam vendor format
0001_20120125_093645_melville.all.mb58.gz 5.04MB Kongsberg multibeam vendor format
0002_20120125_100647_melville.all.mb58.gz 5.07MB Kongsberg multibeam vendor format
0003_20120125_103645_melville.all.mb58.gz 3.07MB Kongsberg multibeam vendor format
0004_20120125_110650_melville.all.mb58.gz 2.10MB Kongsberg multibeam vendor format
0005_20120125_113642_melville.all.mb58.gz 2.09MB Kongsberg multibeam vendor format
0006_20120125_120647_melville.all.mb58.gz 1.96MB Kongsberg multibeam vendor format
0007_20120125_130221_melville.all.mb58.gz 292.7KB Kongsberg multibeam vendor format
0008_20120125_130959_melville.all.mb58.gz 60.3KB Kongsberg multibeam vendor format
0009_20120125_131527_melville.all.mb58.gz 0.78MB Kongsberg multibeam vendor format
0010_20120125_150014_melville.all.mb58.gz 50.2KB Kongsberg multibeam vendor format
0011_20120125_150117_melville.all.mb58.gz 0.60MB Kongsberg multibeam vendor format
0012_20120125_152834_melville.all.mb58.gz 1.23MB Kongsberg multibeam vendor format
0013_20120125_155104_melville.all.mb58.gz 5.97MB Kongsberg multibeam vendor format
0014_20120125_162058_melville.all.mb58.gz 1.21MB Kongsberg multibeam vendor format
0015_20120125_183445_melville.all.mb58.gz 0.73MB Kongsberg multibeam vendor format
0016_20120125_184059_melville.all.mb58.gz 14.1KB Kongsberg multibeam vendor format
0017_20120125_210012_melville.all.mb58.gz 1.42MB Kongsberg multibeam vendor format
0018_20120126_115040_melville.all.mb58.gz 0.67MB Kongsberg multibeam vendor format
0019_20120126_115409_melville.all.mb58.gz 3.77MB Kongsberg multibeam vendor format
0020_20120126_143723_melville.all.mb58.gz 8.36MB Kongsberg multibeam vendor format
0021_20120126_150725_melville.all.mb58.gz 8.27MB Kongsberg multibeam vendor format
0022_20120126_153721_melville.all.mb58.gz 7.76MB Kongsberg multibeam vendor format
0023_20120126_160725_melville.all.mb58.gz 442.5KB Kongsberg multibeam vendor format
0024_20120126_163719_melville.all.mb58.gz 1.10MB Kongsberg multibeam vendor format
0025_20120126_180856_melville.all.mb58.gz 8.42MB Kongsberg multibeam vendor format
0026_20120126_183848_melville.all.mb58.gz 1.66MB Kongsberg multibeam vendor format
0027_20120127_060155_melville.all.mb58.gz 2.90MB Kongsberg multibeam vendor format
0028_20120127_063156_melville.all.mb58.gz 212.0KB Kongsberg multibeam vendor format
0029_20120127_143833_melville.all.mb58.gz 511.3KB Kongsberg multibeam vendor format
0030_20120128_154351_melville.all.mb58.gz 1.43MB Kongsberg multibeam vendor format
0031_20120129_114001_melville.all.mb58.gz 8.55MB Kongsberg multibeam vendor format
0032_20120129_120953_melville.all.mb58.gz 8.65MB Kongsberg multibeam vendor format
0033_20120129_123959_melville.all.mb58.gz 8.75MB Kongsberg multibeam vendor format
0034_20120129_131001_melville.all.mb58.gz 8.74MB Kongsberg multibeam vendor format
0035_20120129_134007_melville.all.mb58.gz 8.66MB Kongsberg multibeam vendor format
0036_20120129_140955_melville.all.mb58.gz 8.68MB Kongsberg multibeam vendor format
0037_20120129_143955_melville.all.mb58.gz 8.70MB Kongsberg multibeam vendor format
0038_20120129_150958_melville.all.mb58.gz 8.73MB Kongsberg multibeam vendor format
0039_20120129_154006_melville.all.mb58.gz 8.59MB Kongsberg multibeam vendor format
0040_20120129_160952_melville.all.mb58.gz 8.58MB Kongsberg multibeam vendor format
0041_20120129_164002_melville.all.mb58.gz 8.62MB Kongsberg multibeam vendor format
0042_20120129_171005_melville.all.mb58.gz 8.40MB Kongsberg multibeam vendor format
0043_20120129_173954_melville.all.mb58.gz 8.42MB Kongsberg multibeam vendor format
0044_20120129_180955_melville.all.mb58.gz 8.43MB Kongsberg multibeam vendor format
0045_20120129_184003_melville.all.mb58.gz 8.44MB Kongsberg multibeam vendor format
0046_20120129_190953_melville.all.mb58.gz 8.51MB Kongsberg multibeam vendor format
0047_20120129_193955_melville.all.mb58.gz 8.32MB Kongsberg multibeam vendor format
0048_20120129_200955_melville.all.mb58.gz 8.64MB Kongsberg multibeam vendor format
0049_20120129_203959_melville.all.mb58.gz 8.50MB Kongsberg multibeam vendor format
0050_20120129_211000_melville.all.mb58.gz 8.18MB Kongsberg multibeam vendor format
0051_20120129_214002_melville.all.mb58.gz 8.35MB Kongsberg multibeam vendor format
0052_20120129_221002_melville.all.mb58.gz 8.29MB Kongsberg multibeam vendor format
0053_20120129_224007_melville.all.mb58.gz 7.67MB Kongsberg multibeam vendor format
0054_20120129_230956_melville.all.mb58.gz 7.55MB Kongsberg multibeam vendor format
0055_20120129_233957_melville.all.mb58.gz 7.75MB Kongsberg multibeam vendor format
0056_20120130_001009_melville.all.mb58.gz 7.55MB Kongsberg multibeam vendor format
0057_20120130_004006_melville.all.mb58.gz 7.17MB Kongsberg multibeam vendor format
0058_20120130_010959_melville.all.mb58.gz 7.73MB Kongsberg multibeam vendor format
0059_20120130_014007_melville.all.mb58.gz 7.58MB Kongsberg multibeam vendor format
0060_20120130_021003_melville.all.mb58.gz 7.67MB Kongsberg multibeam vendor format
0061_20120130_024002_melville.all.mb58.gz 7.91MB Kongsberg multibeam vendor format
0062_20120130_030957_melville.all.mb58.gz 7.90MB Kongsberg multibeam vendor format
0063_20120130_034006_melville.all.mb58.gz 8.00MB Kongsberg multibeam vendor format
0064_20120130_041005_melville.all.mb58.gz 7.53MB Kongsberg multibeam vendor format
0065_20120130_044005_melville.all.mb58.gz 7.61MB Kongsberg multibeam vendor format
0066_20120130_051001_melville.all.mb58.gz 6.22MB Kongsberg multibeam vendor format
0067_20120130_164911_melville.all.mb58.gz 7.58MB Kongsberg multibeam vendor format
0068_20120130_171919_melville.all.mb58.gz 7.59MB Kongsberg multibeam vendor format
0069_20120130_174919_melville.all.mb58.gz 7.48MB Kongsberg multibeam vendor format
0070_20120130_181916_melville.all.mb58.gz 7.68MB Kongsberg multibeam vendor format
0071_20120130_184910_melville.all.mb58.gz 8.00MB Kongsberg multibeam vendor format
0072_20120130_191922_melville.all.mb58.gz 7.74MB Kongsberg multibeam vendor format
0073_20120130_194919_melville.all.mb58.gz 7.85MB Kongsberg multibeam vendor format
0074_20120130_201924_melville.all.mb58.gz 7.32MB Kongsberg multibeam vendor format
0075_20120130_204910_melville.all.mb58.gz 7.56MB Kongsberg multibeam vendor format
0076_20120130_211920_melville.all.mb58.gz 8.00MB Kongsberg multibeam vendor format
0077_20120130_214909_melville.all.mb58.gz 7.89MB Kongsberg multibeam vendor format
0078_20120130_221920_melville.all.mb58.gz 7.69MB Kongsberg multibeam vendor format
0079_20120130_224913_melville.all.mb58.gz 7.65MB Kongsberg multibeam vendor format
0080_20120130_231915_melville.all.mb58.gz 7.71MB Kongsberg multibeam vendor format
0081_20120130_234922_melville.all.mb58.gz 7.58MB Kongsberg multibeam vendor format
0082_20120131_001911_melville.all.mb58.gz 7.48MB Kongsberg multibeam vendor format
0083_20120131_004927_melville.all.mb58.gz 7.09MB Kongsberg multibeam vendor format
0084_20120131_011921_melville.all.mb58.gz 1.73MB Kongsberg multibeam vendor format
0085_20120131_014919_melville.all.mb58.gz 1.72MB Kongsberg multibeam vendor format
0086_20120131_021917_melville.all.mb58.gz 1.70MB Kongsberg multibeam vendor format
0087_20120131_024915_melville.all.mb58.gz 1.70MB Kongsberg multibeam vendor format
0088_20120131_031914_melville.all.mb58.gz 1.70MB Kongsberg multibeam vendor format
0089_20120131_034912_melville.all.mb58.gz 1.72MB Kongsberg multibeam vendor format
0090_20120131_041910_melville.all.mb58.gz 1.04MB Kongsberg multibeam vendor format
0091_20120131_050634_melville.all.mb58.gz 418.6KB Kongsberg multibeam vendor format
0092_20120131_052101_melville.all.mb58.gz 7.04MB Kongsberg multibeam vendor format
0093_20120131_055104_melville.all.mb58.gz 7.01MB Kongsberg multibeam vendor format
0094_20120131_062104_melville.all.mb58.gz 4.72MB Kongsberg multibeam vendor format
0095_20120131_065058_melville.all.mb58.gz 354.9KB Kongsberg multibeam vendor format
0096_20120131_070245_melville.all.mb58.gz 420.2KB Kongsberg multibeam vendor format
0097_20120131_081550_melville.all.mb58.gz 369.7KB Kongsberg multibeam vendor format
0098_20120131_093549_melville.all.mb58.gz 6.25MB Kongsberg multibeam vendor format
0099_20120131_100533_melville.all.mb58.gz 6.33MB Kongsberg multibeam vendor format
0100_20120131_103533_melville.all.mb58.gz 6.56MB Kongsberg multibeam vendor format
0101_20120131_110534_melville.all.mb58.gz 6.17MB Kongsberg multibeam vendor format
0102_20120131_113528_melville.all.mb58.gz 5.28MB Kongsberg multibeam vendor format
0103_20120131_124208_melville.all.mb58.gz 6.92MB Kongsberg multibeam vendor format
0104_20120131_131200_melville.all.mb58.gz 6.30MB Kongsberg multibeam vendor format
0105_20120131_134202_melville.all.mb58.gz 6.22MB Kongsberg multibeam vendor format
0106_20120131_141215_melville.all.mb58.gz 6.19MB Kongsberg multibeam vendor format
0107_20120131_144217_melville.all.mb58.gz 6.13MB Kongsberg multibeam vendor format
0108_20120131_151158_melville.all.mb58.gz 6.36MB Kongsberg multibeam vendor format
0109_20120131_154207_melville.all.mb58.gz 6.06MB Kongsberg multibeam vendor format
0110_20120131_161159_melville.all.mb58.gz 6.08MB Kongsberg multibeam vendor format
0111_20120131_164210_melville.all.mb58.gz 6.10MB Kongsberg multibeam vendor format
0112_20120131_171214_melville.all.mb58.gz 6.28MB Kongsberg multibeam vendor format
0113_20120131_174203_melville.all.mb58.gz 6.51MB Kongsberg multibeam vendor format
0114_20120131_181209_melville.all.mb58.gz 6.64MB Kongsberg multibeam vendor format
0115_20120131_184206_melville.all.mb58.gz 6.44MB Kongsberg multibeam vendor format
0116_20120131_191209_melville.all.mb58.gz 6.54MB Kongsberg multibeam vendor format
0117_20120131_194159_melville.all.mb58.gz 6.31MB Kongsberg multibeam vendor format
0118_20120131_201217_melville.all.mb58.gz 6.37MB Kongsberg multibeam vendor format
0119_20120131_204205_melville.all.mb58.gz 6.26MB Kongsberg multibeam vendor format
0120_20120131_211211_melville.all.mb58.gz 6.13MB Kongsberg multibeam vendor format
0121_20120131_214209_melville.all.mb58.gz 6.63MB Kongsberg multibeam vendor format
0122_20120131_221210_melville.all.mb58.gz 6.71MB Kongsberg multibeam vendor format
0123_20120131_224203_melville.all.mb58.gz 6.43MB Kongsberg multibeam vendor format
0124_20120131_231202_melville.all.mb58.gz 6.28MB Kongsberg multibeam vendor format
0125_20120131_234213_melville.all.mb58.gz 6.52MB Kongsberg multibeam vendor format
0126_20120201_001158_melville.all.mb58.gz 7.27MB Kongsberg multibeam vendor format
0127_20120201_004202_melville.all.mb58.gz 7.23MB Kongsberg multibeam vendor format
0128_20120201_011201_melville.all.mb58.gz 7.28MB Kongsberg multibeam vendor format
0129_20120201_014206_melville.all.mb58.gz 6.91MB Kongsberg multibeam vendor format
0130_20120201_021218_melville.all.mb58.gz 6.44MB Kongsberg multibeam vendor format
0131_20120201_024219_melville.all.mb58.gz 6.78MB Kongsberg multibeam vendor format
0132_20120201_031201_melville.all.mb58.gz 6.84MB Kongsberg multibeam vendor format
0133_20120201_034205_melville.all.mb58.gz 6.90MB Kongsberg multibeam vendor format
0134_20120201_041215_melville.all.mb58.gz 6.43MB Kongsberg multibeam vendor format
0135_20120201_044205_melville.all.mb58.gz 6.66MB Kongsberg multibeam vendor format
0136_20120201_051202_melville.all.mb58.gz 6.88MB Kongsberg multibeam vendor format
0137_20120201_054203_melville.all.mb58.gz 7.34MB Kongsberg multibeam vendor format
0138_20120201_061210_melville.all.mb58.gz 6.86MB Kongsberg multibeam vendor format
0139_20120201_064213_melville.all.mb58.gz 3.49MB Kongsberg multibeam vendor format
0140_20120201_085151_melville.all.mb58.gz 7.04MB Kongsberg multibeam vendor format
0141_20120201_092151_melville.all.mb58.gz 6.46MB Kongsberg multibeam vendor format
0142_20120201_095158_melville.all.mb58.gz 6.77MB Kongsberg multibeam vendor format
0143_20120201_102158_melville.all.mb58.gz 6.86MB Kongsberg multibeam vendor format
0144_20120201_105143_melville.all.mb58.gz 6.95MB Kongsberg multibeam vendor format
0145_20120201_112157_melville.all.mb58.gz 6.82MB Kongsberg multibeam vendor format
0146_20120201_115200_melville.all.mb58.gz 6.29MB Kongsberg multibeam vendor format
0147_20120201_122142_melville.all.mb58.gz 6.24MB Kongsberg multibeam vendor format
0148_20120201_125156_melville.all.mb58.gz 6.78MB Kongsberg multibeam vendor format
0149_20120201_132200_melville.all.mb58.gz 6.39MB Kongsberg multibeam vendor format
0150_20120201_135150_melville.all.mb58.gz 6.57MB Kongsberg multibeam vendor format
0151_20120201_142158_melville.all.mb58.gz 6.28MB Kongsberg multibeam vendor format
0152_20120201_145156_melville.all.mb58.gz 6.28MB Kongsberg multibeam vendor format
0153_20120201_152146_melville.all.mb58.gz 6.16MB Kongsberg multibeam vendor format
0154_20120201_155205_melville.all.mb58.gz 6.15MB Kongsberg multibeam vendor format
0155_20120201_162156_melville.all.mb58.gz 5.94MB Kongsberg multibeam vendor format
0156_20120201_165206_melville.all.mb58.gz 5.91MB Kongsberg multibeam vendor format
0157_20120201_172154_melville.all.mb58.gz 6.17MB Kongsberg multibeam vendor format
0158_20120201_175149_melville.all.mb58.gz 6.32MB Kongsberg multibeam vendor format
0159_20120201_182157_melville.all.mb58.gz 6.53MB Kongsberg multibeam vendor format
0160_20120201_185143_melville.all.mb58.gz 6.43MB Kongsberg multibeam vendor format
0161_20120201_192148_melville.all.mb58.gz 6.64MB Kongsberg multibeam vendor format
0162_20120201_195143_melville.all.mb58.gz 6.76MB Kongsberg multibeam vendor format
0163_20120201_202149_melville.all.mb58.gz 6.70MB Kongsberg multibeam vendor format
0164_20120201_205156_melville.all.mb58.gz 6.92MB Kongsberg multibeam vendor format
0165_20120201_212153_melville.all.mb58.gz 7.04MB Kongsberg multibeam vendor format
0166_20120201_215151_melville.all.mb58.gz 8.12MB Kongsberg multibeam vendor format
0167_20120201_222145_melville.all.mb58.gz 7.43MB Kongsberg multibeam vendor format
0168_20120201_225144_melville.all.mb58.gz 7.70MB Kongsberg multibeam vendor format
0169_20120201_232152_melville.all.mb58.gz 7.32MB Kongsberg multibeam vendor format
0170_20120201_235149_melville.all.mb58.gz 7.32MB Kongsberg multibeam vendor format
0171_20120202_002151_melville.all.mb58.gz 7.37MB Kongsberg multibeam vendor format
0172_20120202_005151_melville.all.mb58.gz 8.03MB Kongsberg multibeam vendor format
0173_20120202_012152_melville.all.mb58.gz 8.58MB Kongsberg multibeam vendor format
0174_20120202_015154_melville.all.mb58.gz 8.30MB Kongsberg multibeam vendor format
0175_20120202_022142_melville.all.mb58.gz 7.78MB Kongsberg multibeam vendor format
0176_20120202_025154_melville.all.mb58.gz 7.98MB Kongsberg multibeam vendor format
0177_20120202_032150_melville.all.mb58.gz 7.73MB Kongsberg multibeam vendor format
0178_20120202_035153_melville.all.mb58.gz 8.30MB Kongsberg multibeam vendor format
0179_20120202_042149_melville.all.mb58.gz 8.11MB Kongsberg multibeam vendor format
0180_20120202_045144_melville.all.mb58.gz 7.84MB Kongsberg multibeam vendor format
0181_20120202_052146_melville.all.mb58.gz 8.06MB Kongsberg multibeam vendor format
0182_20120202_055155_melville.all.mb58.gz 8.47MB Kongsberg multibeam vendor format
0183_20120202_062150_melville.all.mb58.gz 8.14MB Kongsberg multibeam vendor format
0184_20120202_065144_melville.all.mb58.gz 7.94MB Kongsberg multibeam vendor format
0185_20120202_072147_melville.all.mb58.gz 7.94MB Kongsberg multibeam vendor format
0186_20120202_075154_melville.all.mb58.gz 8.70MB Kongsberg multibeam vendor format
0187_20120202_082141_melville.all.mb58.gz 8.83MB Kongsberg multibeam vendor format
0188_20120202_085152_melville.all.mb58.gz 8.31MB Kongsberg multibeam vendor format
0189_20120202_092142_melville.all.mb58.gz 8.72MB Kongsberg multibeam vendor format
0190_20120202_095142_melville.all.mb58.gz 8.18MB Kongsberg multibeam vendor format
0191_20120202_102151_melville.all.mb58.gz 8.75MB Kongsberg multibeam vendor format
0192_20120202_105152_melville.all.mb58.gz 8.29MB Kongsberg multibeam vendor format
0193_20120202_112148_melville.all.mb58.gz 8.21MB Kongsberg multibeam vendor format
0194_20120202_115152_melville.all.mb58.gz 8.64MB Kongsberg multibeam vendor format
0195_20120202_122141_melville.all.mb58.gz 8.90MB Kongsberg multibeam vendor format
0196_20120202_125143_melville.all.mb58.gz 8.41MB Kongsberg multibeam vendor format
0197_20120202_132144_melville.all.mb58.gz 8.41MB Kongsberg multibeam vendor format
0198_20120202_135145_melville.all.mb58.gz 8.63MB Kongsberg multibeam vendor format
0199_20120202_142144_melville.all.mb58.gz 8.37MB Kongsberg multibeam vendor format
0200_20120202_145152_melville.all.mb58.gz 8.19MB Kongsberg multibeam vendor format
0201_20120202_152142_melville.all.mb58.gz 8.59MB Kongsberg multibeam vendor format
0202_20120202_155143_melville.all.mb58.gz 8.66MB Kongsberg multibeam vendor format
0203_20120202_162149_melville.all.mb58.gz 8.44MB Kongsberg multibeam vendor format
0204_20120202_165146_melville.all.mb58.gz 8.52MB Kongsberg multibeam vendor format
0205_20120202_172152_melville.all.mb58.gz 8.08MB Kongsberg multibeam vendor format
0206_20120202_175143_melville.all.mb58.gz 8.77MB Kongsberg multibeam vendor format
0207_20120202_182143_melville.all.mb58.gz 9.66MB Kongsberg multibeam vendor format
0208_20120202_185147_melville.all.mb58.gz 9.63MB Kongsberg multibeam vendor format
0209_20120202_192146_melville.all.mb58.gz 8.76MB Kongsberg multibeam vendor format
0210_20120202_195148_melville.all.mb58.gz 9.23MB Kongsberg multibeam vendor format
0211_20120202_202151_melville.all.mb58.gz 8.80MB Kongsberg multibeam vendor format
0212_20120202_205153_melville.all.mb58.gz 8.89MB Kongsberg multibeam vendor format
0213_20120202_212143_melville.all.mb58.gz 8.77MB Kongsberg multibeam vendor format
0214_20120202_215149_melville.all.mb58.gz 8.75MB Kongsberg multibeam vendor format
0215_20120202_222148_melville.all.mb58.gz 8.89MB Kongsberg multibeam vendor format
0216_20120202_225145_melville.all.mb58.gz 8.51MB Kongsberg multibeam vendor format
0217_20120202_232151_melville.all.mb58.gz 8.29MB Kongsberg multibeam vendor format
0218_20120202_235149_melville.all.mb58.gz 8.26MB Kongsberg multibeam vendor format
0219_20120203_002147_melville.all.mb58.gz 8.45MB Kongsberg multibeam vendor format
0220_20120203_005145_melville.all.mb58.gz 8.14MB Kongsberg multibeam vendor format
0221_20120203_012151_melville.all.mb58.gz 8.90MB Kongsberg multibeam vendor format
0222_20120203_015150_melville.all.mb58.gz 8.64MB Kongsberg multibeam vendor format
0223_20120203_022154_melville.all.mb58.gz 8.28MB Kongsberg multibeam vendor format
0224_20120203_025142_melville.all.mb58.gz 8.05MB Kongsberg multibeam vendor format
0225_20120203_032149_melville.all.mb58.gz 7.98MB Kongsberg multibeam vendor format
0226_20120203_035147_melville.all.mb58.gz 7.97MB Kongsberg multibeam vendor format
0227_20120203_042141_melville.all.mb58.gz 7.94MB Kongsberg multibeam vendor format
0228_20120203_045146_melville.all.mb58.gz 7.48MB Kongsberg multibeam vendor format
0229_20120203_052150_melville.all.mb58.gz 7.40MB Kongsberg multibeam vendor format
0230_20120203_055203_melville.all.mb58.gz 7.22MB Kongsberg multibeam vendor format
0231_20120203_062206_melville.all.mb58.gz 7.25MB Kongsberg multibeam vendor format
0232_20120203_065211_melville.all.mb58.gz 7.11MB Kongsberg multibeam vendor format
0233_20120203_072200_melville.all.mb58.gz 7.12MB Kongsberg multibeam vendor format
0234_20120203_075152_melville.all.mb58.gz 7.25MB Kongsberg multibeam vendor format
0235_20120203_082206_melville.all.mb58.gz 6.98MB Kongsberg multibeam vendor format
0236_20120203_085157_melville.all.mb58.gz 7.13MB Kongsberg multibeam vendor format
0237_20120203_092205_melville.all.mb58.gz 7.18MB Kongsberg multibeam vendor format
0238_20120203_095153_melville.all.mb58.gz 7.46MB Kongsberg multibeam vendor format
0239_20120203_102202_melville.all.mb58.gz 7.40MB Kongsberg multibeam vendor format
0240_20120203_105155_melville.all.mb58.gz 7.40MB Kongsberg multibeam vendor format
0241_20120203_112154_melville.all.mb58.gz 7.58MB Kongsberg multibeam vendor format
0242_20120203_115210_melville.all.mb58.gz 7.49MB Kongsberg multibeam vendor format
0243_20120203_122208_melville.all.mb58.gz 7.24MB Kongsberg multibeam vendor format
0244_20120203_125206_melville.all.mb58.gz 7.03MB Kongsberg multibeam vendor format
0245_20120203_132205_melville.all.mb58.gz 6.86MB Kongsberg multibeam vendor format
0246_20120203_135201_melville.all.mb58.gz 6.84MB Kongsberg multibeam vendor format
0247_20120203_142205_melville.all.mb58.gz 6.67MB Kongsberg multibeam vendor format
0248_20120203_145200_melville.all.mb58.gz 6.62MB Kongsberg multibeam vendor format
0249_20120203_152211_melville.all.mb58.gz 6.67MB Kongsberg multibeam vendor format
0250_20120203_155214_melville.all.mb58.gz 6.66MB Kongsberg multibeam vendor format
0251_20120203_162158_melville.all.mb58.gz 6.54MB Kongsberg multibeam vendor format
0252_20120203_165152_melville.all.mb58.gz 6.45MB Kongsberg multibeam vendor format
0253_20120203_172155_melville.all.mb58.gz 6.63MB Kongsberg multibeam vendor format
0254_20120203_175159_melville.all.mb58.gz 6.82MB Kongsberg multibeam vendor format
0255_20120203_182204_melville.all.mb58.gz 7.08MB Kongsberg multibeam vendor format
0256_20120203_185211_melville.all.mb58.gz 7.06MB Kongsberg multibeam vendor format
0257_20120203_192212_melville.all.mb58.gz 0.62MB Kongsberg multibeam vendor format
0258_20120204_005225_melville.all.mb58.gz 7.55MB Kongsberg multibeam vendor format
0259_20120204_012224_melville.all.mb58.gz 8.17MB Kongsberg multibeam vendor format
0260_20120204_015224_melville.all.mb58.gz 8.29MB Kongsberg multibeam vendor format
0261_20120204_022219_melville.all.mb58.gz 8.86MB Kongsberg multibeam vendor format
0262_20120204_025220_melville.all.mb58.gz 8.81MB Kongsberg multibeam vendor format
0263_20120204_032212_melville.all.mb58.gz 8.60MB Kongsberg multibeam vendor format
0264_20120204_035217_melville.all.mb58.gz 8.75MB Kongsberg multibeam vendor format
0265_20120204_042211_melville.all.mb58.gz 8.34MB Kongsberg multibeam vendor format
0266_20120204_045223_melville.all.mb58.gz 7.37MB Kongsberg multibeam vendor format
0267_20120204_075834_melville.all.mb58.gz 8.50MB Kongsberg multibeam vendor format
0268_20120204_082837_melville.all.mb58.gz 8.24MB Kongsberg multibeam vendor format
0269_20120204_085844_melville.all.mb58.gz 4.93MB Kongsberg multibeam vendor format
0271_20120206_005853_melville.all.mb58.gz 7.34MB Kongsberg multibeam vendor format
0272_20120206_012908_melville.all.mb58.gz 6.96MB Kongsberg multibeam vendor format
0273_20120206_015852_melville.all.mb58.gz 6.85MB Kongsberg multibeam vendor format
0274_20120206_022900_melville.all.mb58.gz 6.95MB Kongsberg multibeam vendor format
0275_20120206_025900_melville.all.mb58.gz 7.28MB Kongsberg multibeam vendor format
0276_20120206_032856_melville.all.mb58.gz 7.29MB Kongsberg multibeam vendor format
0277_20120206_035850_melville.all.mb58.gz 7.05MB Kongsberg multibeam vendor format
0278_20120206_042858_melville.all.mb58.gz 7.05MB Kongsberg multibeam vendor format
0279_20120206_045902_melville.all.mb58.gz 7.24MB Kongsberg multibeam vendor format
0280_20120206_052905_melville.all.mb58.gz 6.99MB Kongsberg multibeam vendor format
0281_20120206_075523_melville.all.mb58.gz 7.14MB Kongsberg multibeam vendor format
0282_20120206_082518_melville.all.mb58.gz 7.24MB Kongsberg multibeam vendor format
0283_20120206_085511_melville.all.mb58.gz 7.35MB Kongsberg multibeam vendor format
0284_20120206_092507_melville.all.mb58.gz 7.21MB Kongsberg multibeam vendor format
0285_20120206_095514_melville.all.mb58.gz 7.53MB Kongsberg multibeam vendor format
0286_20120206_102510_melville.all.mb58.gz 7.51MB Kongsberg multibeam vendor format
0287_20120206_105511_melville.all.mb58.gz 7.57MB Kongsberg multibeam vendor format
0288_20120206_112513_melville.all.mb58.gz 7.62MB Kongsberg multibeam vendor format
0289_20120206_115518_melville.all.mb58.gz 7.24MB Kongsberg multibeam vendor format
0290_20120206_122521_melville.all.mb58.gz 7.43MB Kongsberg multibeam vendor format
0291_20120206_125508_melville.all.mb58.gz 7.43MB Kongsberg multibeam vendor format
0292_20120206_132522_melville.all.mb58.gz 7.65MB Kongsberg multibeam vendor format
0293_20120206_135508_melville.all.mb58.gz 7.46MB Kongsberg multibeam vendor format
0294_20120206_142509_melville.all.mb58.gz 3.53MB Kongsberg multibeam vendor format
0295_20120206_173548_melville.all.mb58.gz 7.04MB Kongsberg multibeam vendor format
0296_20120206_180546_melville.all.mb58.gz 7.14MB Kongsberg multibeam vendor format
0297_20120206_183553_melville.all.mb58.gz 7.07MB Kongsberg multibeam vendor format
0298_20120206_190537_melville.all.mb58.gz 7.21MB Kongsberg multibeam vendor format
0299_20120206_193540_melville.all.mb58.gz 6.99MB Kongsberg multibeam vendor format
0300_20120206_200536_melville.all.mb58.gz 7.05MB Kongsberg multibeam vendor format
0301_20120206_203539_melville.all.mb58.gz 7.50MB Kongsberg multibeam vendor format
0302_20120206_210547_melville.all.mb58.gz 7.54MB Kongsberg multibeam vendor format
0303_20120206_213549_melville.all.mb58.gz 8.00MB Kongsberg multibeam vendor format
0304_20120206_220538_melville.all.mb58.gz 7.98MB Kongsberg multibeam vendor format
0305_20120206_223535_melville.all.mb58.gz 7.86MB Kongsberg multibeam vendor format
0306_20120206_230547_melville.all.mb58.gz 7.77MB Kongsberg multibeam vendor format
0307_20120206_233551_melville.all.mb58.gz 8.05MB Kongsberg multibeam vendor format
0308_20120207_000541_melville.all.mb58.gz 8.14MB Kongsberg multibeam vendor format
0309_20120207_003536_melville.all.mb58.gz 8.18MB Kongsberg multibeam vendor format
0310_20120207_010535_melville.all.mb58.gz 8.37MB Kongsberg multibeam vendor format
0311_20120207_013538_melville.all.mb58.gz 8.32MB Kongsberg multibeam vendor format
0312_20120207_020533_melville.all.mb58.gz 7.96MB Kongsberg multibeam vendor format
0313_20120207_023540_melville.all.mb58.gz 7.84MB Kongsberg multibeam vendor format
0314_20120207_030536_melville.all.mb58.gz 8.64MB Kongsberg multibeam vendor format
0315_20120207_033543_melville.all.mb58.gz 9.03MB Kongsberg multibeam vendor format
0316_20120207_040534_melville.all.mb58.gz 9.23MB Kongsberg multibeam vendor format
0317_20120207_043540_melville.all.mb58.gz 9.24MB Kongsberg multibeam vendor format
0318_20120207_050538_melville.all.mb58.gz 10.41MB Kongsberg multibeam vendor format
0319_20120207_053532_melville.all.mb58.gz 13.62MB Kongsberg multibeam vendor format
0320_20120207_060532_melville.all.mb58.gz 18.43MB Kongsberg multibeam vendor format
0321_20120207_063532_melville.all.mb58.gz 22.16MB Kongsberg multibeam vendor format
0322_20120207_070532_melville.all.mb58.gz 30.03MB Kongsberg multibeam vendor format
0323_20120207_073531_melville.all.mb58.gz 32.21MB Kongsberg multibeam vendor format
0324_20120207_080532_melville.all.mb58.gz 32.40MB Kongsberg multibeam vendor format
0325_20120207_083532_melville.all.mb58.gz 32.51MB Kongsberg multibeam vendor format
0326_20120207_090532_melville.all.mb58.gz 32.61MB Kongsberg multibeam vendor format
0327_20120207_093532_melville.all.mb58.gz 32.59MB Kongsberg multibeam vendor format
0328_20120207_100532_melville.all.mb58.gz 32.35MB Kongsberg multibeam vendor format
0329_20120207_103531_melville.all.mb58.gz 32.29MB Kongsberg multibeam vendor format
0330_20120207_110532_melville.all.mb58.gz 32.10MB Kongsberg multibeam vendor format
0331_20120207_113531_melville.all.mb58.gz 31.83MB Kongsberg multibeam vendor format
0332_20120207_120531_melville.all.mb58.gz 31.64MB Kongsberg multibeam vendor format
0333_20120207_123532_melville.all.mb58.gz 31.44MB Kongsberg multibeam vendor format
0334_20120207_130532_melville.all.mb58.gz 31.37MB Kongsberg multibeam vendor format
0335_20120207_133532_melville.all.mb58.gz 31.38MB Kongsberg multibeam vendor format
0336_20120207_140532_melville.all.mb58.gz 31.36MB Kongsberg multibeam vendor format
0337_20120207_143532_melville.all.mb58.gz 31.24MB Kongsberg multibeam vendor format
0338_20120207_150531_melville.all.mb58.gz 31.33MB Kongsberg multibeam vendor format
0339_20120207_153532_melville.all.mb58.gz 6.33MB Kongsberg multibeam vendor format

Metadata Files: 2

Files File Size Description
MV1202_Multibeam.xml NGDC created ISO metadata
xbt_bag_info.tar.gz 8.2KB Additional cruise information

Ancillary Files: 1

Files File Size Description
xbt.tar.gz 4.56MB Expendable Bathythermograph (XBT) data